| time (UTC) | temp F | wind direction | speed MPH | gust MPH | rain 1hr in | rain 24hr in | rain mn in | humidity % | barometer mb |
| 20260906012458 | 72 | 15 | 2.0 | 7.0 | 0.00 | 0.01 | 0.01 | 52 | 1017.3 |
| 20260906011934 | 73 | 51 | 1.0 | 4.0 | 0.00 | 0.01 | 0.01 | 52 | 1017.1 |
| 20260906011429 | 73 | 281 | 1.0 | 5.0 | 0.00 | 0.01 | 0.01 | 52 | 1017.1 |
| 20260906010928 | 74 | 74 | 1.0 | 3.0 | 0.00 | 0.01 | 0.01 | 51 | 1017.1 |
| 20260906010436 | 75 | 249 | 0.0 | 2.0 | 0.00 | 0.01 | 0.01 | 51 | 1017.0 |
| 20260906005941 | 75 | 248 | 1.0 | 2.0 | 0.00 | 0.01 | 0.01 | 50 | 1017.0 |
| 20260906005438 | 75 | 25 | 0.0 | 2.0 | 0.00 | 0.01 | 0.01 | 52 | 1017.0 |
| 20260906004936 | 74 | 274 | 0.0 | 4.0 | 0.00 | 0.01 | 0.01 | 53 | 1016.9 |
| 20260906004434 | 73 | 271 | 1.0 | 5.0 | 0.00 | 0.01 | 0.01 | 53 | 1017.0 |
| 20260906003932 | 74 | 257 | 2.0 | 4.0 | 0.00 | 0.01 | 0.01 | 52 | 1017.1 |
| 20260906003439 | 74 | 274 | 1.0 | 4.0 | 0.00 | 0.01 | 0.01 | 53 | 1017.1 |
| 20260906002955 | 73 | 223 | 1.0 | 3.0 | 0.00 | 0.01 | 0.01 | 54 | 1017.1 |
| 20260906002455 | 73 | 254 | 1.0 | 3.0 | 0.00 | 0.01 | 0.01 | 53 | 1017.1 |
| 20260906001926 | 74 | 236 | 1.0 | 3.0 | 0.00 | 0.01 | 0.01 | 52 | 1017.0 |
| 20260906001507 | 74 | 278 | 1.0 | 2.0 | 0.00 | 0.01 | 0.01 | 52 | 1017.0 |
| 20260906000924 | 73 | 265 | 1.0 | 5.0 | 0.00 | 0.01 | 0.01 | 52 | 1017.0 |
| 20260906000422 | 73 | 250 | 1.0 | 5.0 | 0.00 | 0.01 | 0.01 | 53 | 1017.1 |
| 20260905235919 | 73 | 219 | 3.0 | 5.0 | 0.00 | 0.01 | 0.01 | 52 | 1017.1 |
| 20260905235438 | 74 | 281 | 2.0 | 4.0 | 0.00 | 0.01 | 0.01 | 51 | 1017.0 |
| 20260905234935 | 74 | 286 | 0.0 | 3.0 | 0.00 | 0.01 | 0.01 | 54 | 1017.0 |
| 20260905234443 | 74 | 274 | 2.0 | 3.0 | 0.00 | 0.01 | 0.01 | 53 | 1017.0 |
| 20260905233940 | 75 | 29 | 0.0 | 3.0 | 0.00 | 0.01 | 0.01 | 53 | 1017.0 |
| 20260905233436 | 74 | 231 | 1.0 | 3.0 | 0.00 | 0.01 | 0.01 | 52 | 1017.0 |
| 20260905232934 | 73 | 110 | 2.0 | 3.0 | 0.00 | 0.01 | 0.01 | 53 | 1017.1 |
| 20260905232428 | 72 | 115 | 2.0 | 4.0 | 0.00 | 0.01 | 0.01 | 53 | 1017.1 |
| 20260905231926 | 72 | 117 | 2.0 | 4.0 | 0.00 | 0.01 | 0.01 | 54 | 1017.1 |
| 20260905231427 | 72 | 24 | 2.0 | 4.0 | 0.00 | 0.01 | 0.01 | 53 | 1017.2 |
| 20260905230924 | 73 | 15 | 1.0 | 4.0 | 0.00 | 0.01 | 0.01 | 52 | 1017.2 |
| 20260905230442 | 74 | 278 | 1.0 | 4.0 | 0.00 | 0.01 | 0.01 | 53 | 1017.2 |
| 20260905225947 | 74 | 263 | 1.0 | 4.0 | 0.00 | 0.03 | 0.01 | 54 | 1017.3 |
| 20260905225444 | 74 | 253 | 2.0 | 4.0 | 0.00 | 0.03 | 0.01 | 55 | 1017.5 |
| 20260905224941 | 74 | 256 | 1.0 | 4.0 | 0.00 | 0.03 | 0.01 | 54 | 1017.5 |
| 20260905224419 | 73 | 41 | 1.0 | 4.0 | 0.00 | 0.03 | 0.01 | 55 | 1017.5 |
| 20260905223936 | 72 | 249 | 1.0 | 3.0 | 0.00 | 0.03 | 0.01 | 55 | 1017.5 |
| 20260905223437 | 72 | 272 | 0.0 | 4.0 | 0.00 | 0.03 | 0.01 | 55 | 1017.7 |
| 20260905222956 | 72 | 261 | 2.0 | 4.0 | 0.00 | 0.03 | 0.01 | 56 | 1017.6 |
| 20260905222501 | 72 | 2 | 1.0 | 3.0 | 0.00 | 0.03 | 0.01 | 57 | 1017.6 |
| 20260905221937 | 72 | 225 | 1.0 | 3.0 | 0.00 | 0.03 | 0.01 | 57 | 1017.7 |
| 20260905221435 | 71 | 269 | 0.0 | 2.0 | 0.00 | 0.03 | 0.01 | 58 | 1017.7 |
| 20260905220932 | 71 | 276 | 0.0 | 3.0 | 0.00 | 0.03 | 0.01 | 58 | 1017.7 |
| 20260905220430 | 70 | 160 | 0.0 | 3.0 | 0.00 | 0.03 | 0.01 | 58 | 1017.8 |
| 20260905215920 | 70 | 71 | 1.0 | 4.0 | 0.00 | 0.20 | 0.01 | 57 | 1017.8 |
| 20260905215447 | 70 | 93 | 2.0 | 4.0 | 0.00 | 0.20 | 0.01 | 56 | 1017.8 |
| 20260905214925 | 71 | 86 | 1.0 | 3.0 | 0.00 | 0.20 | 0.01 | 56 | 1017.9 |
| 20260905214423 | 71 | 143 | 0.0 | 3.0 | 0.00 | 0.20 | 0.01 | 56 | 1017.9 |
| 20260905213937 | 72 | 255 | 1.0 | 3.0 | 0.00 | 0.20 | 0.01 | 57 | 1017.9 |
| 20260905213436 | 72 | 153 | 0.0 | 4.0 | 0.00 | 0.20 | 0.01 | 56 | 1017.9 |
| 20260905212934 | 72 | 115 | 1.0 | 5.0 | 0.00 | 0.20 | 0.01 | 56 | 1017.9 |
| 20260905212434 | 71 | 151 | 2.0 | 5.0 | 0.00 | 0.20 | 0.01 | 57 | 1017.9 |
| 20260905211930 | 71 | 219 | 1.0 | 4.0 | 0.00 | 0.20 | 0.01 | 57 | 1017.9 |
| 20260905211428 | 71 | 208 | 0.0 | 4.0 | 0.00 | 0.20 | 0.01 | 57 | 1017.9 |
| 20260905210920 | 71 | 112 | 2.0 | 4.0 | 0.00 | 0.20 | 0.01 | 56 | 1018.0 |
| 20260905210447 | 72 | 51 | 1.0 | 6.0 | 0.00 | 0.20 | 0.01 | 56 | 1018.0 |
| 20260905205945 | 71 | 200 | 0.0 | 6.0 | 0.00 | 0.20 | 0.01 | 59 | 1018.1 |
| 20260905205422 | 71 | 221 | 1.0 | 5.0 | 0.00 | 0.20 | 0.01 | 58 | 1018.2 |
| 20260905204940 | 70 | 89 | 2.0 | 5.0 | 0.00 | 0.20 | 0.01 | 60 | 1018.2 |
| 20260905204432 | 71 | 252 | 2.0 | 4.0 | 0.00 | 0.20 | 0.01 | 59 | 1018.2 |
| 20260905203940 | 70 | 19 | 1.0 | 3.0 | 0.00 | 0.20 | 0.01 | 66 | 1018.1 |
| 20260905203457 | 70 | 63 | 1.0 | 2.0 | 0.00 | 0.20 | 0.01 | 60 | 1018.2 |
| 20260905203002 | 70 | 278 | 1.0 | 3.0 | 0.00 | 0.20 | 0.01 | 59 | 1018.2 |
| 20260905202437 | 70 | 227 | 1.0 | 3.0 | 0.00 | 0.20 | 0.01 | 60 | 1018.2 |
| 20260905201934 | 70 | 75 | 1.0 | 2.0 | 0.00 | 0.20 | 0.01 | 62 | 1018.2 |
| 20260905201502 | 69 | 243 | 1.0 | 5.0 | 0.00 | 0.20 | 0.01 | 63 | 1018.3 |
| 20260905200940 | 69 | 237 | 1.0 | 5.0 | 0.00 | 0.20 | 0.01 | 62 | 1018.2 |
| 20260905200454 | 70 | 235 | 1.0 | 5.0 | 0.00 | 0.20 | 0.01 | 61 | 1018.2 |
| 20260905195931 | 70 | 241 | 1.0 | 4.0 | 0.00 | 0.20 | 0.01 | 64 | 1018.2 |
| 20260905195438 | 69 | 285 | 1.0 | 4.0 | 0.00 | 0.20 | 0.01 | 62 | 1018.3 |
| 20260905194936 | 69 | 236 | 2.0 | 4.0 | 0.00 | 0.20 | 0.01 | 62 | 1018.3 |
| 20260905194433 | 69 | 284 | 1.0 | 4.0 | 0.00 | 0.20 | 0.01 | 63 | 1018.4 |
| 20260905193930 | 69 | 229 | 1.0 | 6.0 | 0.00 | 0.20 | 0.01 | 63 | 1018.5 |
| 20260905193422 | 70 | 271 | 2.0 | 6.0 | 0.00 | 0.20 | 0.01 | 64 | 1018.5 |
| 20260905192919 | 69 | 201 | 0.0 | 5.0 | 0.00 | 0.20 | 0.01 | 64 | 1018.6 |
| 20260905192447 | 68 | 258 | 0.0 | 5.0 | 0.00 | 0.20 | 0.01 | 66 | 1018.6 |
| 20260905191926 | 69 | 36 | 2.0 | 6.0 | 0.00 | 0.20 | 0.01 | 65 | 1018.7 |
| 20260905191424 | 69 | 20 | 1.0 | 5.0 | 0.00 | 0.20 | 0.01 | 65 | 1018.7 |
| 20260905190957 | 69 | 333 | 3.0 | 5.0 | 0.00 | 0.20 | 0.01 | 65 | 1018.7 |
| 20260905190443 | 69 | 348 | 1.0 | 5.0 | 0.00 | 0.20 | 0.01 | 68 | 1018.6 |
| 20260905185938 | 68 | 130 | 0.0 | 5.0 | 0.00 | 0.20 | 0.01 | 68 | 1018.7 |
| 20260905185436 | 67 | 57 | 1.0 | 6.0 | 0.00 | 0.20 | 0.01 | 68 | 1018.7 |
| 20260905184933 | 68 | 72 | 4.0 | 7.0 | 0.00 | 0.20 | 0.01 | 66 | 1018.7 |
| 20260905184459 | 68 | 65 | 0.0 | 5.0 | 0.00 | 0.20 | 0.01 | 67 | 1018.7 |
| 20260905183935 | 67 | 34 | 2.0 | 5.0 | 0.00 | 0.20 | 0.01 | 67 | 1018.8 |
| 20260905183432 | 68 | 314 | 2.0 | 5.0 | 0.00 | 0.20 | 0.01 | 66 | 1018.8 |
| 20260905182958 | 67 | 23 | 1.0 | 6.0 | 0.00 | 0.20 | 0.01 | 69 | 1018.9 |
| 20260905182431 | 67 | 141 | 3.0 | 6.0 | 0.00 | 0.20 | 0.01 | 68 | 1018.9 |
| 20260905181928 | 67 | 106 | 2.0 | 6.0 | 0.00 | 0.20 | 0.01 | 69 | 1018.9 |
| 20260905181426 | 68 | 120 | 0.0 | 3.0 | 0.00 | 0.20 | 0.01 | 71 | 1018.9 |
| 20260905180945 | 67 | 274 | 1.0 | 3.0 | 0.00 | 0.20 | 0.01 | 70 | 1019.0 |
| 20260905180444 | 67 | 261 | 1.0 | 4.0 | 0.00 | 0.20 | 0.01 | 71 | 1019.0 |
| 20260905175941 | 68 | 63 | 1.0 | 4.0 | 0.00 | 0.20 | 0.01 | 68 | 1018.9 |
| 20260905175419 | 68 | 263 | 0.0 | 3.0 | 0.00 | 0.20 | 0.01 | 71 | 1019.0 |
| 20260905174936 | 67 | 290 | 0.0 | 3.0 | 0.00 | 0.20 | 0.01 | 73 | 1019.0 |
| 20260905174433 | 67 | 79 | 1.0 | 2.0 | 0.00 | 0.20 | 0.01 | 71 | 1019.0 |
| 20260905173939 | 66 | 236 | 0.0 | 2.0 | 0.00 | 0.20 | 0.01 | 73 | 1019.1 |
| 20260905173435 | 65 | 152 | 1.0 | 3.0 | 0.00 | 0.20 | 0.01 | 75 | 1019.1 |
| 20260905172928 | 65 | 80 | 1.0 | 3.0 | 0.00 | 0.20 | 0.01 | 74 | 1019.1 |
| 20260905172425 | 65 | 149 | 0.0 | 3.0 | 0.00 | 0.20 | 0.01 | 76 | 1019.1 |
| 20260905171945 | 64 | 32 | 1.0 | 3.0 | 0.00 | 0.20 | 0.01 | 78 | 1019.1 |
| 20260905171443 | 63 | 242 | 1.0 | 4.0 | 0.00 | 0.20 | 0.01 | 78 | 1019.1 |
| 20260905170940 | 64 | 58 | 3.0 | 4.0 | 0.00 | 0.20 | 0.01 | 77 | 1019.1 |
| 20260905170446 | 64 | 66 | 0.0 | 3.0 | 0.00 | 0.20 | 0.01 | 78 | 1019.2 |
| 20260905165942 | 64 | 101 | 0.0 | 2.0 | 0.01 | 0.20 | 0.01 | 78 | 1019.1 |
| 20260905165421 | 64 | 105 | 0.0 | 1.0 | 0.01 | 0.20 | 0.01 | 80 | 1019.2 |
| 20260905164919 | 64 | 259 | 0.0 | 2.0 | 0.01 | 0.20 | 0.01 | 80 | 1019.1 |
| 20260905164442 | 63 | 64 | 1.0 | 2.0 | 0.01 | 0.20 | 0.01 | 79 | 1019.1 |
| 20260905163958 | 63 | 41 | 0.0 | 2.0 | 0.01 | 0.20 | 0.01 | 81 | 1019.1 |
| 20260905163434 | 63 | 210 | 1.0 | 2.0 | 0.01 | 0.20 | 0.01 | 80 | 1019.1 |
| 20260905162925 | 62 | 141 | 0.0 | 2.0 | 0.01 | 0.20 | 0.01 | 84 | 1019.1 |
| 20260905162422 | 61 | 221 | 0.0 | 2.0 | 0.01 | 0.20 | 0.01 | 83 | 1019.0 |
| 20260905161919 | 62 | 224 | 0.0 | 2.0 | 0.01 | 0.20 | 0.01 | 81 | 1019.2 |
| 20260905161506 | 61 | 152 | 0.0 | 2.0 | 0.01 | 0.20 | 0.01 | 84 | 1019.2 |
| 20260905160943 | 60 | 141 | 0.0 | 2.0 | 0.01 | 0.20 | 0.01 | 84 | 1019.2 |
| 20260905160421 | 59 | 236 | 0.0 | 3.0 | 0.01 | 0.20 | 0.01 | 86 | 1019.2 |
| 20260905155920 | 59 | 75 | 0.0 | 1.0 | 0.00 | 0.19 | 0.00 | 88 | 1019.3 |
| 20260905155433 | 58 | 94 | 0.0 | 2.0 | 0.00 | 0.19 | 0.00 | 90 | 1019.3 |
| 20260905154931 | 57 | 23 | 0.0 | 2.0 | 0.00 | 0.19 | 0.00 | 90 | 1019.3 |
| 20260905154432 | 56 | 63 | 1.0 | 5.0 | 0.00 | 0.19 | 0.00 | 91 | 1019.3 |
| 20260905153929 | 56 | 67 | 1.0 | 5.0 | 0.00 | 0.19 | 0.00 | 92 | 1019.2 |
| 20260905153427 | 56 | 53 | 2.0 | 4.0 | 0.00 | 0.19 | 0.00 | 92 | 1019.2 |
| 20260905152948 | 56 | 91 | 0.0 | 4.0 | 0.00 | 0.19 | 0.00 | 93 | 1019.4 |
| 20260905152444 | 55 | 37 | 3.0 | 4.0 | 0.00 | 0.19 | 0.00 | 93 | 1019.4 |
| 20260905151942 | 55 | 94 | 2.0 | 4.0 | 0.00 | 0.19 | 0.00 | 94 | 1019.4 |
| 20260905151420 | 55 | 80 | 2.0 | 3.0 | 0.00 | 0.19 | 0.00 | 96 | 1019.4 |
| 20260905150937 | 54 | 86 | 1.0 | 3.0 | 0.00 | 0.19 | 0.00 | 96 | 1019.3 |
| 20260905150422 | 54 | 80 | 0.0 | 3.0 | 0.00 | 0.19 | 0.00 | 96 | 1019.4 |
| 20260905145937 | 54 | 58 | 1.0 | 3.0 | 0.00 | 0.19 | 0.00 | 96 | 1019.4 |
| 20260905145435 | 53 | 116 | 1.0 | 2.0 | 0.00 | 0.19 | 0.00 | 96 | 1019.4 |
| 20260905144935 | 53 | 275 | 0.0 | 1.0 | 0.00 | 0.19 | 0.00 | 96 | 1019.4 |
| 20260905144502 | 53 | 275 | 0.0 | 1.0 | 0.00 | 0.19 | 0.00 | 96 | 1019.3 |
| 20260905143937 | 53 | 275 | 0.0 | 0.0 | 0.00 | 0.19 | 0.00 | 96 | 1019.2 |
| 20260905143434 | 53 | 275 | 0.0 | 0.0 | 0.00 | 0.19 | 0.00 | 96 | 1019.3 |
| 20260905142942 | 53 | 275 | 0.0 | 0.0 | 0.00 | 0.19 | 0.00 | 96 | 1019.3 |
| 20260905142437 | 53 | 275 | 0.0 | 0.0 | 0.00 | 0.19 | 0.00 | 96 | 1019.2 |
| 20260905141935 | 53 | 275 | 0.0 | 0.0 | 0.00 | 0.19 | 0.00 | 96 | 1019.1 |
| 20260905141450 | 53 | 275 | 0.0 | 0.0 | 0.00 | 0.19 | 0.00 | 96 | 1019.1 |
| 20260905140927 | 53 | 275 | 0.0 | 0.0 | 0.00 | 0.19 | 0.00 | 96 | 1019.1 |
| 20260905140438 | 53 | 275 | 0.0 | 0.0 | 0.00 | 0.19 | 0.00 | 96 | 1019.2 |
| 20260905135944 | 53 | 275 | 0.0 | 0.0 | 0.00 | 0.19 | 0.00 | 96 | 1019.1 |
| 20260905135441 | 52 | 275 | 0.0 | 1.0 | 0.00 | 0.19 | 0.00 | 96 | 1019.1 |
| 20260905134936 | 52 | 275 | 0.0 | 1.0 | 0.00 | 0.19 | 0.00 | 96 | 1019.0 |
| 20260905134432 | 52 | 275 | 0.0 | 0.0 | 0.00 | 0.19 | 0.00 | 96 | 1019.0 |
| 20260905133931 | 52 | 274 | 0.0 | 0.0 | 0.00 | 0.19 | 0.00 | 96 | 1019.1 |
| 20260905133421 | 53 | 274 | 0.0 | 1.0 | 0.00 | 0.19 | 0.00 | 96 | 1019.1 |
| 20260905132920 | 53 | 274 | 0.0 | 1.0 | 0.00 | 0.19 | 0.00 | 96 | 1019.1 |
| 20260905132427 | 53 | 274 | 0.0 | 0.0 | 0.00 | 0.19 | 0.00 | 96 | 1019.1 |
| 20260905131923 | 53 | 274 | 0.0 | 0.0 | 0.00 | 0.19 | 0.00 | 96 | 1018.9 |
| 20260905131420 | 53 | 274 | 0.0 | 1.0 | 0.00 | 0.19 | 0.00 | 96 | 1018.9 |
| 20260905131006 | 53 | 274 | 0.0 | 1.0 | 0.00 | 0.19 | 0.00 | 96 | 1018.9 |
| 20260905130444 | 53 | 70 | 0.0 | 1.0 | 0.00 | 0.19 | 0.00 | 96 | 1018.9 |
| 20260905125941 | 53 | 70 | 0.0 | 2.0 | 0.00 | 0.20 | 0.00 | 96 | 1018.8 |
| 20260905125419 | 53 | 80 | 0.0 | 2.0 | 0.00 | 0.20 | 0.00 | 96 | 1018.8 |
| 20260905124936 | 54 | 113 | 0.0 | 1.0 | 0.00 | 0.20 | 0.00 | 96 | 1018.8 |
| 20260905124434 | 53 | 79 | 0.0 | 1.0 | 0.00 | 0.20 | 0.00 | 96 | 1018.7 |
| 20260905123932 | 54 | 79 | 0.0 | 1.0 | 0.00 | 0.20 | 0.00 | 96 | 1018.8 |
| 20260905123430 | 53 | 79 | 0.0 | 1.0 | 0.00 | 0.20 | 0.00 | 96 | 1018.8 |
| 20260905122931 | 53 | 75 | 0.0 | 1.0 | 0.00 | 0.20 | 0.00 | 96 | 1018.9 |
| 20260905122428 | 53 | 64 | 0.0 | 1.0 | 0.00 | 0.20 | 0.00 | 96 | 1018.8 |
| 20260905121927 | 54 | 100 | 0.0 | 1.0 | 0.00 | 0.20 | 0.00 | 96 | 1018.9 |
| 20260905121424 | 54 | 100 | 0.0 | 1.0 | 0.00 | 0.20 | 0.00 | 96 | 1019.0 |
| 20260905120945 | 54 | 100 | 0.0 | 1.0 | 0.00 | 0.20 | 0.00 | 96 | 1018.9 |
| 20260905120421 | 54 | 103 | 0.0 | 2.0 | 0.00 | 0.20 | 0.00 | 96 | 1018.8 |
| 20260905115919 | 53 | 105 | 1.0 | 2.0 | 0.00 | 0.23 | 0.00 | 96 | 1018.8 |
| 20260905115447 | 54 | 90 | 1.0 | 2.0 | 0.00 | 0.23 | 0.00 | 96 | 1018.8 |
| 20260905114946 | 54 | 84 | 0.0 | 1.0 | 0.00 | 0.23 | 0.00 | 96 | 1018.9 |
| 20260905114424 | 54 | 98 | 0.0 | 1.0 | 0.00 | 0.23 | 0.00 | 96 | 1018.8 |
| 20260905113922 | 54 | 98 | 0.0 | 1.0 | 0.00 | 0.23 | 0.00 | 96 | 1018.8 |
| 20260905113421 | 54 | 96 | 0.0 | 1.0 | 0.00 | 0.23 | 0.00 | 96 | 1018.8 |
| 20260905112934 | 54 | 96 | 0.0 | 1.0 | 0.00 | 0.23 | 0.00 | 96 | 1018.8 |
| 20260905112439 | 54 | 77 | 0.0 | 0.0 | 0.00 | 0.23 | 0.00 | 96 | 1018.8 |
| 20260905111937 | 54 | 77 | 0.0 | 1.0 | 0.00 | 0.23 | 0.00 | 96 | 1018.6 |
| 20260905111435 | 54 | 77 | 0.0 | 1.0 | 0.00 | 0.23 | 0.00 | 96 | 1018.6 |
| 20260905110942 | 54 | 78 | 0.0 | 1.0 | 0.00 | 0.23 | 0.00 | 96 | 1018.7 |
| 20260905110440 | 54 | 77 | 0.0 | 1.0 | 0.00 | 0.23 | 0.00 | 96 | 1018.7 |
| 20260905105937 | 54 | 77 | 0.0 | 1.0 | 0.00 | 0.27 | 0.00 | 96 | 1018.7 |
| 20260905105435 | 54 | 78 | 0.0 | 1.0 | 0.00 | 0.27 | 0.00 | 96 | 1018.7 |
| 20260905104934 | 54 | 71 | 0.0 | 1.0 | 0.00 | 0.27 | 0.00 | 96 | 1018.8 |
| 20260905104450 | 54 | 97 | 0.0 | 0.0 | 0.00 | 0.27 | 0.00 | 96 | 1018.7 |
| 20260905103926 | 54 | 143 | 0.0 | 0.0 | 0.00 | 0.27 | 0.00 | 96 | 1018.7 |
| 20260905103507 | 53 | 143 | 0.0 | 0.0 | 0.00 | 0.27 | 0.00 | 96 | 1018.7 |
| 20260905102925 | 53 | 143 | 0.0 | 0.0 | 0.00 | 0.27 | 0.00 | 96 | 1018.7 |
| 20260905102422 | 54 | 143 | 0.0 | 0.0 | 0.00 | 0.27 | 0.00 | 96 | 1018.7 |
| 20260905101919 | 54 | 143 | 0.0 | 0.0 | 0.00 | 0.27 | 0.00 | 96 | 1018.8 |
| 20260905101438 | 54 | 143 | 0.0 | 0.0 | 0.00 | 0.27 | 0.00 | 96 | 1018.7 |
| 20260905100944 | 54 | 143 | 0.0 | 0.0 | 0.00 | 0.27 | 0.00 | 96 | 1018.8 |
| 20260905100421 | 54 | 143 | 0.0 | 0.0 | 0.00 | 0.27 | 0.00 | 96 | 1018.8 |
| 20260905095920 | 54 | 143 | 0.0 | 0.0 | 0.00 | 0.27 | 0.00 | 96 | 1018.8 |
| 20260905095502 | 54 | 143 | 0.0 | 0.0 | 0.00 | 0.27 | 0.00 | 96 | 1018.8 |
| 20260905094937 | 54 | 143 | 0.0 | 0.0 | 0.00 | 0.27 | 0.00 | 96 | 1018.8 |
| 20260905094435 | 54 | 143 | 0.0 | 0.0 | 0.00 | 0.27 | 0.00 | 96 | 1018.8 |
| 20260905093934 | 54 | 143 | 0.0 | 0.0 | 0.00 | 0.27 | 0.00 | 96 | 1018.8 |
| 20260905093432 | 54 | 143 | 0.0 | 0.0 | 0.00 | 0.27 | 0.00 | 96 | 1018.6 |
| 20260905092939 | 54 | 144 | 0.0 | 0.0 | 0.00 | 0.27 | 0.00 | 96 | 1018.6 |
| 20260905092437 | 54 | 143 | 0.0 | 0.0 | 0.00 | 0.27 | 0.00 | 96 | 1018.5 |
| 20260905091934 | 54 | 143 | 0.0 | 0.0 | 0.00 | 0.27 | 0.00 | 96 | 1018.6 |
| 20260905091431 | 54 | 143 | 0.0 | 0.0 | 0.00 | 0.27 | 0.00 | 96 | 1018.5 |
| 20260905090428 | 54 | 143 | 0.0 | 0.0 | 0.00 | 0.27 | 0.00 | 96 | 1018.5 |
| 20260905085945 | 54 | 143 | 0.0 | 0.0 | 0.00 | 0.27 | 0.00 | 96 | 1018.5 |
| 20260905085445 | 54 | 143 | 0.0 | 0.0 | 0.00 | 0.27 | 0.00 | 96 | 1018.6 |
| 20260905084945 | 54 | 143 | 0.0 | 0.0 | 0.00 | 0.27 | 0.00 | 96 | 1018.7 |
| 20260905084443 | 54 | 181 | 0.0 | 0.0 | 0.00 | 0.27 | 0.00 | 96 | 1018.6 |
| 20260905083921 | 54 | 98 | 0.0 | 0.0 | 0.00 | 0.27 | 0.00 | 96 | 1018.5 |
| 20260905083508 | 55 | 98 | 0.0 | 0.0 | 0.00 | 0.27 | 0.00 | 96 | 1018.5 |
| 20260905082945 | 55 | 98 | 0.0 | 0.0 | 0.00 | 0.27 | 0.00 | 96 | 1018.4 |
| 20260905082420 | 55 | 98 | 0.0 | 0.0 | 0.00 | 0.27 | 0.00 | 96 | 1018.4 |
| 20260905081918 | 55 | 97 | 0.0 | 0.0 | 0.00 | 0.27 | 0.00 | 96 | 1018.3 |
| 20260905081433 | 55 | 97 | 0.0 | 0.0 | 0.00 | 0.27 | 0.00 | 96 | 1018.3 |
| 20260905080932 | 55 | 97 | 0.0 | 0.0 | 0.00 | 0.27 | 0.00 | 96 | 1018.3 |
| 20260905080430 | 55 | 97 | 0.0 | 0.0 | 0.00 | 0.27 | 0.00 | 96 | 1018.3 |
| 20260905075937 | 55 | 97 | 0.0 | 0.0 | 0.00 | 0.27 | 0.00 | 96 | 1018.4 |
| 20260905075435 | 55 | 97 | 0.0 | 0.0 | 0.00 | 0.27 | 0.00 | 96 | 1018.3 |
| 20260905074934 | 55 | 108 | 0.0 | 0.0 | 0.00 | 0.27 | 0.00 | 96 | 1018.3 |
| 20260905074432 | 55 | 87 | 0.0 | 1.0 | 0.00 | 0.27 | 0.00 | 96 | 1018.3 |
| 20260905073930 | 55 | 87 | 0.0 | 1.0 | 0.00 | 0.27 | 0.00 | 96 | 1018.3 |
| 20260905073428 | 55 | 84 | 0.0 | 1.0 | 0.00 | 0.27 | 0.00 | 96 | 1018.2 |
| 20260905072929 | 55 | 84 | 0.0 | 1.0 | 0.00 | 0.27 | 0.00 | 96 | 1018.3 |
| 20260905072427 | 55 | 86 | 0.0 | 0.0 | 0.00 | 0.27 | 0.00 | 96 | 1018.3 |
| 20260905071919 | 55 | 113 | 0.0 | 1.0 | 0.00 | 0.27 | 0.00 | 96 | 1018.3 |
| 20260905071442 | 55 | 113 | 0.0 | 0.0 | 0.00 | 0.27 | 0.00 | 96 | 1018.2 |
| 20260905070938 | 55 | 113 | 0.0 | 1.0 | 0.00 | 0.27 | 0.00 | 96 | 1018.2 |
| 20260905070458 | 55 | 113 | 0.0 | 1.0 | 0.00 | 0.27 | 0.00 | 96 | 1018.2 |
| 20260905065934 | 56 | 113 | 0.0 | 1.0 | 0.00 | 0.27 | 0.27 | 96 | 1018.1 |
| 20260905065432 | 55 | 124 | 0.0 | 0.0 | 0.00 | 0.27 | 0.27 | 96 | 1018.0 |
| 20260905064956 | 55 | 124 | 0.0 | 0.0 | 0.00 | 0.27 | 0.27 | 96 | 1018.0 |
| 20260905064435 | 55 | 124 | 0.0 | 0.0 | 0.00 | 0.27 | 0.27 | 96 | 1017.9 |
| 20260905063931 | 55 | 124 | 0.0 | 1.0 | 0.00 | 0.27 | 0.27 | 96 | 1017.9 |
| 20260905063431 | 55 | 124 | 0.0 | 1.0 | 0.00 | 0.27 | 0.27 | 96 | 1017.9 |
| 20260905062929 | 55 | 124 | 0.0 | 1.0 | 0.00 | 0.27 | 0.27 | 96 | 1017.9 |
| 20260905062447 | 56 | 124 | 0.0 | 1.0 | 0.00 | 0.27 | 0.27 | 96 | 1017.9 |
| 20260905061921 | 55 | 158 | 0.0 | 0.0 | 0.00 | 0.27 | 0.27 | 96 | 1017.9 |
| 20260905061418 | 55 | 158 | 0.0 | 0.0 | 0.00 | 0.27 | 0.27 | 96 | 1017.7 |
| 20260905060935 | 55 | 158 | 0.0 | 0.0 | 0.00 | 0.27 | 0.27 | 96 | 1017.7 |
| 20260905060433 | 55 | 158 | 0.0 | 0.0 | 0.00 | 0.27 | 0.27 | 96 | 1017.7 |
| 20260905055919 | 55 | 160 | 0.0 | 0.0 | 0.00 | 0.28 | 0.27 | 95 | 1017.7 |
| 20260905055456 | 55 | 160 | 0.0 | 0.0 | 0.00 | 0.28 | 0.27 | 95 | 1017.7 |
| 20260905054943 | 55 | 159 | 0.0 | 0.0 | 0.00 | 0.28 | 0.27 | 95 | 1017.7 |
| 20260905054440 | 55 | 160 | 0.0 | 0.0 | 0.00 | 0.28 | 0.27 | 95 | 1017.6 |
| 20260905053933 | 55 | 160 | 0.0 | 0.0 | 0.00 | 0.28 | 0.27 | 95 | 1017.6 |
| 20260905053452 | 55 | 160 | 0.0 | 0.0 | 0.00 | 0.28 | 0.27 | 95 | 1017.6 |
| 20260905052952 | 55 | 159 | 0.0 | 0.0 | 0.00 | 0.28 | 0.27 | 95 | 1017.7 |
| 20260905052451 | 55 | 160 | 0.0 | 0.0 | 0.00 | 0.28 | 0.27 | 95 | 1017.6 |
| 20260905051927 | 55 | 160 | 0.0 | 0.0 | 0.00 | 0.28 | 0.27 | 95 | 1017.6 |
| 20260905051425 | 55 | 160 | 0.0 | 0.0 | 0.00 | 0.28 | 0.27 | 95 | 1017.5 |
| 20260905050923 | 55 | 160 | 0.0 | 0.0 | 0.00 | 0.28 | 0.27 | 95 | 1017.6 |
| 20260905050508 | 55 | 159 | 0.0 | 0.0 | 0.00 | 0.28 | 0.27 | 95 | 1017.6 |
| 20260905045939 | 55 | 160 | 0.0 | 2.0 | 0.00 | 0.28 | 0.27 | 95 | 1017.6 |
| 20260905045436 | 55 | 161 | 0.0 | 2.0 | 0.00 | 0.28 | 0.27 | 95 | 1017.6 |
| 20260905044934 | 55 | 208 | 0.0 | 1.0 | 0.00 | 0.28 | 0.27 | 95 | 1017.5 |
| 20260905044442 | 55 | 86 | 0.0 | 0.0 | 0.00 | 0.28 | 0.27 | 95 | 1017.6 |
| 20260905043939 | 55 | 86 | 0.0 | 0.0 | 0.00 | 0.28 | 0.27 | 95 | 1017.5 |
| 20260905043436 | 55 | 86 | 0.0 | 0.0 | 0.00 | 0.28 | 0.27 | 95 | 1017.5 |
| 20260905042933 | 55 | 86 | 0.0 | 0.0 | 0.00 | 0.28 | 0.27 | 95 | 1017.5 |
| 20260905042432 | 55 | 86 | 0.0 | 0.0 | 0.00 | 0.28 | 0.27 | 95 | 1017.6 |
| 20260905041929 | 55 | 86 | 0.0 | 0.0 | 0.00 | 0.28 | 0.27 | 95 | 1017.5 |
| 20260905041427 | 56 | 86 | 0.0 | 0.0 | 0.00 | 0.28 | 0.27 | 95 | 1017.4 |
| 20260905040919 | 55 | 86 | 0.0 | 0.0 | 0.00 | 0.28 | 0.27 | 94 | 1017.5 |
| 20260905040442 | 55 | 86 | 0.0 | 0.0 | 0.00 | 0.28 | 0.27 | 94 | 1017.4 |
| 20260905035941 | 56 | 86 | 0.0 | 0.0 | 0.00 | 0.28 | 0.27 | 94 | 1017.4 |
| 20260905035438 | 56 | 86 | 0.0 | 0.0 | 0.00 | 0.28 | 0.27 | 94 | 1017.2 |
| 20260905034935 | 56 | 86 | 0.0 | 0.0 | 0.00 | 0.28 | 0.27 | 94 | 1017.2 |
| 20260905034433 | 56 | 86 | 0.0 | 0.0 | 0.00 | 0.28 | 0.27 | 94 | 1017.1 |
| 20260905033930 | 56 | 86 | 0.0 | 0.0 | 0.00 | 0.28 | 0.27 | 94 | 1017.1 |
| 20260905033430 | 56 | 86 | 0.0 | 0.0 | 0.00 | 0.28 | 0.27 | 93 | 1017.2 |
| 20260905032920 | 56 | 86 | 0.0 | 0.0 | 0.00 | 0.28 | 0.27 | 93 | 1017.2 |
| 20260905032443 | 57 | 86 | 0.0 | 0.0 | 0.00 | 0.28 | 0.27 | 93 | 1017.2 |
| 20260905031942 | 57 | 86 | 0.0 | 1.0 | 0.00 | 0.28 | 0.27 | 93 | 1017.1 |
| 20260905031503 | 57 | 86 | 0.0 | 1.0 | 0.00 | 0.28 | 0.27 | 92 | 1017.0 |
| 20260905030941 | 57 | 89 | 0.0 | 1.0 | 0.00 | 0.28 | 0.27 | 93 | 1017.0 |
| 20260905030421 | 57 | 125 | 0.0 | 3.0 | 0.00 | 0.28 | 0.27 | 92 | 1017.0 |
| 20260905025935 | 57 | 68 | 1.0 | 3.0 | 0.00 | 0.28 | 0.27 | 92 | 1017.1 |
| 20260905025422 | 57 | 81 | 0.0 | 1.0 | 0.00 | 0.28 | 0.27 | 92 | 1016.9 |
| 20260905024957 | 57 | 32 | 0.0 | 1.0 | 0.00 | 0.28 | 0.27 | 92 | 1016.9 |
| 20260905024444 | 57 | 20 | 0.0 | 1.0 | 0.00 | 0.28 | 0.27 | 92 | 1016.8 |
| 20260905023921 | 58 | 73 | 0.0 | 0.0 | 0.00 | 0.28 | 0.27 | 91 | 1017.0 |
| 20260905023434 | 58 | 73 | 0.0 | 0.0 | 0.00 | 0.28 | 0.27 | 91 | 1016.9 |
| 20260905022932 | 58 | 73 | 0.0 | 0.0 | 0.00 | 0.28 | 0.27 | 90 | 1017.0 |
| 20260905022430 | 58 | 73 | 0.0 | 1.0 | 0.00 | 0.28 | 0.27 | 90 | 1017.0 |
| 20260905021932 | 58 | 73 | 0.0 | 1.0 | 0.00 | 0.28 | 0.27 | 88 | 1016.9 |
| 20260905021427 | 59 | 74 | 0.0 | 1.0 | 0.00 | 0.28 | 0.27 | 88 | 1016.8 |
| 20260905020919 | 59 | 69 | 0.0 | 1.0 | 0.00 | 0.28 | 0.27 | 88 | 1016.7 |
| 20260905020447 | 59 | 68 | 0.0 | 2.0 | 0.00 | 0.28 | 0.27 | 88 | 1016.5 |
| 20260905015943 | 59 | 70 | 1.0 | 2.0 | 0.00 | 0.28 | 0.27 | 87 | 1016.6 |
| 20260905015419 | 59 | 113 | 0.0 | 1.0 | 0.00 | 0.28 | 0.27 | 88 | 1016.6 |
| 20260905014936 | 59 | 156 | 0.0 | 2.0 | 0.00 | 0.28 | 0.27 | 89 | 1016.6 |
| 20260905014500 | 59 | 105 | 1.0 | 2.0 | 0.00 | 0.28 | 0.27 | 89 | 1016.7 |
| 20260905013918 | 59 | 103 | 0.0 | 1.0 | 0.00 | 0.28 | 0.27 | 89 | 1016.5 |
| 20260905013437 | 59 | 93 | 0.0 | 1.0 | 0.00 | 0.28 | 0.27 | 90 | 1016.5 |
| 20260905013003 | 59 | 101 | 0.0 | 2.0 | 0.00 | 0.28 | 0.27 | 90 | 1016.5 |